Location: Bijele Vode
(45.2833°N, 16.2000°E)
Time: 20:59:45
(UTC+00:00)

Nauka - Pass Details

Date: 04 October 2021
Orbit: 417 x 423 km, 51.6° (Epoch: 19 October)

Event Time Altitude Azimuth Distance (km) Brightness Sun altitude
Rises 17:32:36 0° 297° (WNW) 2,365 ? -11.9°
Reaches altitude 10° 17:34:43 10° 294° (WNW) 1,499 ? -12.2°
Maximum altitude 17:38:02 59° 214° (SW) 487 ? -12.8°
Enters shadow 17:40:25 17° 138° (SE) 1,132 ? -13.2°
